Location: Carrer del Canonge
(41.4901°N, 2.2931°E)
Time: 21:15:49
(UTC+00:00)

N. Korean satellite - Visible Passes

Search period start: 30 November 2020 00:00
Search period end: 10 December 2020 00:00
Orbit: 453 x 504 km, 97.2° (Epoch: 29 November)

Date Brightness Start Highest point End Pass type
(mag) Time Alt. Az. Time Alt. Az. Time Alt. Az.
30 Nov 9.2 04:36:56 10° NE 04:39:47 21° E 04:42:38 10° SSE visible
30 Nov 7.7 06:10:07 10° NNW 06:13:02 23° WNW 06:15:57 10° WSW visible
01 Dec 10.2 04:12:39 10° E 04:13:17 10° E 04:13:54 10° E visible
01 Dec 6.7 05:43:21 10° N 05:46:51 48° WNW 05:50:23 10° SSW visible
02 Dec 6.8 05:16:56 10° NNE 05:20:35 74° ESE 05:24:14 10° S visible
02 Dec 9.6 17:26:28 10° SW 17:28:47 17° W 17:31:08 10° NW visible
03 Dec 8.4 04:50:54 10° NNE 04:54:13 32° E 04:57:32 10° SSE visible
03 Dec 8.2 06:24:58 10° NNW 06:27:16 16° WNW 06:29:35 10° WSW visible
03 Dec 8.2 16:59:08 10° SSW 17:02:19 37° W 17:05:34 10° NNW visible
04 Dec 9.7 04:25:26 10° NE 04:27:44 16° E 04:30:02 10° SE visible
04 Dec 7.3 05:57:51 10° N 06:01:08 32° WNW 06:04:25 10° SW visible
05 Dec 6.5 05:31:14 10° N 05:34:53 71° WNW 05:38:32 10° SSW visible
05 Dec 10.0 17:42:00 10° WSW 17:43:10 11° W 17:44:21 10° WNW visible
06 Dec 7.5 05:04:57 10° NNE 05:08:31 50° E 05:12:06 10° S visible
06 Dec 9.1 17:13:46 10° SSW 17:16:37 24° W 17:19:31 10° NW visible
07 Dec 9.0 04:39:05 10° NE 04:42:05 23° E 04:45:05 10° SSE visible
07 Dec 7.8 06:12:26 10° NNW 06:15:18 22° WNW 06:18:10 10° WSW visible
07 Dec 7.4 16:46:47 10° S 16:50:09 55° W 16:53:36 10° NNW visible
08 Dec 10.1 04:14:15 10° ENE 04:15:31 11° E 04:16:47 10° ESE visible
08 Dec 6.9 05:45:33 10° N 05:49:04 45° WNW 05:52:36 10° SSW visible
09 Dec 6.7 05:19:03 10° NNE 05:22:45 80° ESE 05:26:26 10° S visible
09 Dec 9.7 17:28:37 10° SW 17:30:52 16° W 17:33:09 10° NW visible
